Regional Weather Roundup
Issued by NWS

Home | Current Version | Previous Version | Graphics & Text | Print | Product List | Glossary On
Versions: 1 2 3 4 5 6 7 8 9 10 11 12 13 14 15 16 17 18 19 20 21 22 23 24 25 26 27 28 29 30 31 32 33 34 35 36 37 38 39 40 41 42 43 44 45 46 47 48 49 50
000
ASUS45 KBOI 222010
RWRID
WEATHER ROUNDUP FOR IDAHO
NATIONAL WEATHER SERVICE BOISE ID
200 PM MDT MON SEP 22 2014

NOTE: "FAIR" INDICATES FEW OR NO CLOUDS BELOW 12000 FEET
WITH NO SIGNIFICANT WEATHER AND/OR OBSTRUCTIONS TO VISIBILITY

IDZ012-014-222100-
SOUTHWEST IDAHO


CITY           SKY/WX    TMP DP  RH WIND       PRES   REMARKS
BOISE          MOSUNNY   78  51  38 CALM      30.04F
CALDWELL       MOSUNNY   77  52  41 CALM      30.06F
MOUNTAIN HOME  MOSUNNY   76  54  46 VRB2      30.05F
$$

IDZ016-017-222100-
SOUTHCENTRAL IDAHO


CITY           SKY/WX    TMP DP  RH WIND       PRES   REMARKS
BURLEY         CLOUDY    73  49  42 NW8       30.10F
JEROME         PTSUNNY   68  50  52 NW6       30.12F
TWIN FALLS     PTSUNNY   73  51  46 NW8       30.12S
$$

IDZ019>023-222100-
SOUTHEAST IDAHO


CITY           SKY/WX    TMP DP  RH WIND       PRES   REMARKS
IDAHO FALLS    PTSUNNY   70  53  54 SW14      30.14F
POCATELLO      CLOUDY    70  53  54 W7        30.14F
REXBURG        PTSUNNY   69  52  54 SW15G22   30.13F
$$

IDZ006-010-011-018-031-032-222100-
CENTRAL IDAHO MOUNTAINS


CITY           SKY/WX    TMP DP  RH WIND       PRES   REMARKS
MCCALL         PTSUNNY   71  48  43 NW7       30.11F
HAILEY         MOSUNNY   66  54  63 SE12      30.18S
STANLEY          N/A     61  46  57 CALM      30.21F
SALMON         MOSUNNY   72  52  49 S14       30.04F
CHALLIS        PTSUNNY   64  52  64 CALM      30.13F
$$

IDZ002-004-006-007-026-222100-
NORTHERN IDAHO


CITY           SKY/WX    TMP DP  RH WIND       PRES   REMARKS
LEWISTON       LGT RAIN  73  47  39 S6        29.94F
LOWELL           N/A     81  52  36 N5        29.93F
COEUR D`ALENE  MOSUNNY   77  48  36 SE5       29.96S
MULLAN PASS    MOSUNNY   68  40  35 VRB5      30.13S
$$



USA.gov is the U.S. government's official web portal to all federal, state and local government web resources and services.